Vertical_Velocity
1 0 -12 -4 -0 -0 -3 -4 -6 -9 6 2 -15 -2 0 1 1 -1 0 -0 -0 1 -1 -3 -3 -2 -4 1 1 -2 -0 1 -0 -1 2 -0 5 3 -0 -1 -2 5 -11 -6
-2 -14 1 1 -3 0 -0 -1 -6 -9 -2 -6 -4 -4 -2 3 4 1 -1 0 3 2 -4 -3 -3 -1 0 0 3 2 2 1 -1 -1 1 1 1 1 -1 7 -3 -9 -6 -6
-5 3 0 -1 1 2 -1 -0 -1 1 11 -5 -1 -17 -2 20 -6 -2 1 -0 -1 -1 -3 -2 -2 -1 2 0 -1 -2 -2 -2 2 -3 0 0 -2 -1 -2 -2 -0 -1 -1 -2
-2 23 -5 1 -3 -1 4 5 -7 0 5 -2 3 -15 -4 -1 -3 -0 2 3 0 -2 0 1 1 -0 -1 -1 -2 -2 -1 -1 -3 3 1 -6 3 1 -0 -11 -2 0 1 -4
-11 -8 -4 1 -7 7 -10 9 -6 1 -1 9 2 11 -43 34 2 -5 1 4 0 1 0 -1 0 -1 -2 -1 -1 -3 -1 1 1 -4 -1 0 -2 -4 -4 -4 -2 -2 -1 -2
3 3 5 -4 -0 1 2 -8 -2 -1 2 13 -16 15 -18 8 -11 4 2 3 1 1 -2 -1 -0 -2 -3 -1 -3 -4 -3 -4 -4 -4 -2 -0 -3 -6 -5 -4 -3 -5 -4 -3
10 -0 -8 -7 5 1 2 3 3 8 12 -12 4 21 -33 -9 -7 1 -7 2 -0 -2 -2 -0 -2 -2 -4 -4 -2 -2 -2 1 2 2 -5 -0 -4 1 -1 -2 -3 -4 -6 -4
-7 15 -1 -12 -9 -8 -8 -6 -6 -4 0 -10 24 -6 -21 17 3 -7 -2 1 -2 -2 -0 0 -3 -3 -4 -7 -4 -4 -6 -5 -7 -1 -5 -2 -1 -4 -4 -2 -3 1 -2 -6
11 -9 32 -5 -5 8 -5 3 -13 7 9 4 -2 -2 -9 -5 -1 2 -3 -2 0 -1 -2 -2 -2 -2 -2 -6 -6 -5 -6 -6 -7 -4 -6 2 -1 1 -1 -3 -0 -3 2 -5
-19 11 -5 7 4 -4 7 4 12 5 4 1 -7 -7 -13 5 -9 -6 -2 0 -1 -0 -0 -2 -4 -3 -1 -3 -4 -2 -2 -1 -2 -7 1 0 -1 -0 -2 1 2 -3 1 6
8 4 -12 15 -11 -8 -2 7 1 3 -3 -0 -1 -22 -1 1 -8 -2 -3 -1 3 1 0 -5 -3 -2 -1 -0 -3 -0 -1 -2 -1 -3 0 -2 -1 -1 -1 4 5 3 2 -1
-15 -7 2 -15 -1 -3 2 -6 -2 5 -8 -15 5 -40 -9 7 -4 -3 -2 2 4 -1 -1 -2 -3 -2 0 -0 -1 -1 -3 -0 -0 1 0 1 1 0 -0 1 -1 -3 1 -0
-13 -3 11 24 12 8 1 -7 6 -4 5 -7 8 -11 -0 -8 2 1 6 6 -0 3 2 -2 -1 -0 -1 -0 -0 -3 -2 -2 3 3 -3 -2 -2 1 0 -1 -0 1 0 1
14 3 -8 -23 -28 -10 4 -3 -6 3 9 -12 -20 -12 30 -6 -8 -7 -3 1 -2 4 -1 3 4 2 -3 -0 -1 1 -1 -4 2 1 -2 -3 -1 0 3 3 3 -0 -1 -2
3 6 2 -2 11 -8 9 -5 -2 4 -11 2 -20 -18 8 9 10 -8 -2 -5 5 -1 -2 4 6 1 4 2 -3 7 -8 3 0 -0 3 -2 1 3 1 4 2 1 1 -1
1 2 3 -3 -3 10 -8 2 4 -3 -4 5 8 -25 16 -2 -0 31 0 6 3 -10 -1 6 2 7 7 -9 5 -2 2 3 2 -3 -1 -2 0 0 1 1 1 -1 2 -1
7 5 1 -9 1 5 9 -17 -10 5 4 -1 -3 -26 16 -2 1 9 8 -7 -1 11 4 9 7 9 -0 3 7 2 1 1 -3 -2 -1 -2 -3 2 2 1 6 1 -5 -3
-11 -7 2 -9 11 3 -54 1 -2 -12 -8 3 -3 -9 -0 4 3 -11 36 -6 5 -3 7 10 11 -8 1 5 2 2 1 1 2 1 2 3 1 1 4 -1 -2 1 0 -5
-11 19 6 -5 -3 -14 -4 2 -4 5 -23 8 -13 -7 -0 4 10 -26 11 -1 1 9 12 -1 -3 3 6 6 6 0 3 2 1 -0 0 -0 -2 -3 -4 -2 1 -0 3 -6
21 21 7 3 0 -5 -37 3 4 -1 -40 20 -12 -12 -4 6 -0 -19 11 -1 -6 -6 -4 -5 12 6 -5 2 0 2 5 2 0 -0 -1 0 -0 -0 -1 -1 -3 -1 -3 -3
6 4 -6 5 -2 -10 11 -6 3 4 -19 -3 -3 -0 1 -4 11 -1 -9 3 6 12 19 0 -3 -7 8 1 -2 2 3 2 2 0 -1 -0 -2 -3 -1 0 -5 -0 -5 -2
-3 -3 -3 15 5 -10 -10 4 1 15 -1 -11 -6 -4 -1 5 -10 -10 -1 -0 -3 -10 -13 -3 -1 -2 0 3 3 0 -1 -0 -2 -3 -1 -4 -1 1 -2 -1 1 -6 -2 1
2 -30 -27 -15 -19 -5 -0 11 -3 -16 13 -11 -4 -3 -2 0 -2 4 -2 -2 -0 -0 1 5 7 4 4 2 2 1 -0 -2 -0 -0 1 0 -3 -2 1 -1 -1 -2 0 7
-8 3 -6 1 -17 -8 5 -10 -0 2 6 -0 -3 -5 -1 -3 -4 -2 1 -2 -0 3 0 2 0 1 -2 -1 2 -2 -3 -6 -2 -2 -4 -4 -2 0 -2 -2 -8 3 -1 3
31 0 -1 -4 -1 -4 10 5 2 -1 -3 2 0 -4 -4 -2 1 2 3 0 -3 -1 3 3 -2 -3 -2 0 2 1 -3 -2 -5 2 2 -1 -2 0 -2 -5 -5 6 5 -0
-3 -4 -10 -7 3 1 5 -6 -1 5 -0 -3 -5 -1 -3 2 -2 1 -1 -5 -4 -3 -2 -3 2 -2 5 0 2 2 0 2 -0 2 3 -0 -1 0 -4 2 -3 5 5 0
Height
3134 3136 3135 3140 3143 3145 3145 3145 3144 3146 3148 3143 3144 3142 3142 3142 3141 3140 3138 3138 3137 3136 3134 3133 3134 3136 3136 3137 3137 3138 3139 3139 3139 3139 3140 3141 3142 3142 3142 3141 3141 3141 3140 3138
3130 3126 3132 3135 3138 3139 3140 3140 3140 3141 3142 3139 3139 3136 3136 3136 3136 3134 3134 3134 3134 3133 3129 3130 3130 3131 3132 3133 3134 3134 3135 3136 3135 3135 3136 3137 3138 3139 3139 3139 3137 3136 3133 3131
3123 3126 3125 3130 3131 3132 3134 3134 3136 3137 3137 3134 3133 3130 3125 3129 3128 3128 3128 3129 3128 3128 3127 3127 3127 3128 3129 3129 3130 3130 3131 3131 3131 3130 3132 3134 3135 3135 3135 3135 3135 3131 3128 3127
3118 3121 3121 3124 3127 3127 3128 3131 3131 3133 3133 3130 3125 3126 3122 3121 3123 3123 3125 3125 3125 3125 3125 3125 3125 3125 3125 3126 3127 3127 3127 3126 3127 3128 3129 3129 3130 3131 3130 3131 3130 3127 3125 3122
3109 3111 3113 3116 3120 3123 3123 3125 3128 3128 3128 3127 3124 3125 3119 3116 3119 3121 3122 3121 3121 3121 3122 3122 3123 3122 3124 3124 3124 3125 3125 3124 3125 3126 3126 3127 3128 3126 3126 3125 3124 3123 3122 3120
3104 3106 3108 3110 3115 3117 3119 3121 3124 3124 3125 3119 3119 3120 3114 3110 3113 3116 3118 3117 3117 3118 3118 3120 3120 3121 3121 3121 3121 3122 3122 3121 3122 3122 3123 3123 3123 3123 3122 3120 3119 3118 3118 3117
3096 3097 3101 3104 3110 3111 3114 3119 3119 3118 3115 3109 3110 3108 3109 3106 3109 3110 3111 3113 3114 3115 3116 3117 3117 3117 3118 3118 3118 3118 3118 3119 3120 3119 3120 3119 3119 3118 3118 3118 3117 3116 3115 3114
3088 3090 3093 3094 3099 3103 3104 3110 3107 3105 3104 3101 3101 3101 3102 3104 3102 3105 3107 3108 3109 3111 3112 3113 3113 3114 3114 3114 3114 3115 3116 3117 3117 3116 3117 3116 3115 3115 3114 3114 3113 3112 3110 3108
3076 3079 3086 3087 3092 3099 3100 3100 3107 3105 3105 3107 3096 3094 3096 3098 3097 3100 3101 3103 3105 3107 3108 3109 3110 3110 3110 3109 3110 3110 3111 3112 3112 3113 3113 3113 3112 3111 3110 3109 3108 3106 3105 3103
3071 3075 3077 3082 3086 3088 3092 3099 3102 3102 3101 3099 3089 3087 3087 3086 3091 3095 3096 3097 3100 3102 3104 3105 3106 3106 3106 3105 3106 3106 3107 3108 3108 3109 3109 3107 3107 3106 3104 3103 3102 3100 3100 3098
3066 3069 3073 3075 3074 3079 3084 3087 3091 3095 3093 3088 3083 3078 3078 3078 3085 3088 3090 3092 3095 3098 3099 3100 3101 3102 3101 3101 3100 3101 3102 3103 3103 3102 3102 3101 3100 3099 3099 3098 3096 3095 3093 3092
3055 3062 3064 3066 3071 3074 3077 3080 3084 3084 3085 3083 3085 3073 3076 3081 3082 3083 3086 3088 3091 3094 3094 3095 3096 3096 3096 3096 3095 3095 3096 3095 3096 3095 3095 3094 3093 3092 3092 3092 3090 3090 3089 3087
3047 3049 3058 3062 3067 3068 3068 3073 3076 3080 3081 3073 3078 3070 3071 3075 3080 3081 3084 3087 3087 3088 3088 3089 3089 3089 3090 3091 3091 3090 3090 3091 3090 3089 3088 3086 3085 3085 3084 3084 3085 3085 3083 3082
3041 3042 3043 3045 3051 3057 3061 3064 3068 3072 3071 3070 3061 3071 3072 3072 3075 3078 3080 3082 3082 3083 3083 3084 3084 3083 3083 3084 3083 3083 3082 3083 3083 3082 3080 3078 3078 3077 3077 3078 3077 3076 3076 3075
3034 3036 3039 3043 3047 3050 3053 3057 3060 3060 3059 3066 3056 3064 3065 3070 3069 3070 3072 3074 3076 3077 3076 3077 3077 3078 3078 3076 3075 3075 3074 3076 3075 3074 3073 3071 3071 3070 3070 3070 3070 3068 3067 3066
3026 3031 3034 3038 3042 3045 3048 3048 3051 3055 3057 3057 3057 3053 3061 3065 3066 3068 3064 3066 3067 3067 3068 3069 3069 3072 3070 3066 3067 3068 3068 3067 3066 3065 3064 3063 3063 3062 3062 3061 3060 3060 3059 3058
3020 3024 3029 3031 3037 3041 3041 3036 3045 3047 3048 3051 3049 3045 3054 3056 3058 3060 3059 3060 3060 3060 3062 3064 3064 3060 3057 3057 3058 3059 3059 3058 3057 3057 3056 3055 3055 3053 3053 3053 3052 3050 3048 3048
3014 3020 3028 3028 3030 3033 3021 3032 3037 3039 3040 3043 3044 3043 3046 3048 3050 3051 3052 3051 3052 3053 3054 3055 3052 3047 3049 3051 3051 3051 3050 3050 3049 3048 3047 3047 3046 3046 3046 3045 3045 3043 3041 3038
3010 3017 3018 3020 3024 3024 3022 3024 3026 3029 3028 3033 3036 3036 3038 3040 3042 3038 3044 3041 3044 3044 3044 3040 3039 3040 3042 3043 3042 3042 3042 3041 3040 3039 3039 3039 3039 3039 3039 3038 3036 3033 3031 3030
3003 3008 3011 3013 3017 3015 3009 3019 3021 3023 3018 3025 3026 3026 3030 3032 3030 3030 3033 3031 3029 3032 3030 3029 3034 3033 3032 3034 3035 3035 3034 3033 3032 3032 3032 3032 3031 3030 3030 3029 3026 3025 3023 3022
2992 2997 2999 3002 3009 3007 3009 3008 3013 3016 3015 3014 3016 3018 3021 3022 3024 3019 3018 3020 3022 3023 3024 3023 3023 3025 3028 3028 3028 3027 3027 3026 3026 3025 3025 3024 3023 3022 3021 3020 3019 3017 3015 3013
2976 2985 2989 2994 2999 2995 3000 3003 3003 3006 3003 3004 3007 3009 3011 3012 3008 3008 3010 3012 3015 3015 3017 3017 3018 3020 3020 3020 3020 3019 3019 3019 3018 3018 3018 3017 3016 3014 3013 3011 3010 3008 3007 3005
2971 2968 2976 2980 2981 2987 2991 2994 2993 2994 2997 2996 2999 3000 3002 3004 3002 3003 3004 3006 3009 3011 3012 3013 3013 3012 3012 3013 3012 3011 3012 3013 3012 3011 3009 3009 3008 3006 3004 3003 3001 3000 2998 2995
2963 2966 2967 2974 2974 2978 2981 2982 2985 2986 2988 2989 2990 2991 2995 2996 2997 2998 2999 3001 3004 3006 3007 3007 3006 3005 3006 3006 3006 3004 3006 3006 3006 3004 3002 3001 3000 2998 2995 2994 2994 2991 2989 2987
2951 2954 2957 2964 2969 2970 2972 2974 2976 2978 2981 2983 2985 2986 2989 2991 2992 2994 2994 2995 2996 2998 2999 2999 2999 3000 3000 3000 2999 2997 2998 2998 2998 2996 2995 2993 2991 2989 2987 2986 2985 2984 2982 2980
2945 2947 2951 2957 2960 2961 2963 2964 2968 2971 2974 2976 2979 2981 2984 2987 2987 2988 2988 2989 2990 2990 2991 2992 2993 2993 2993 2991 2991 2990 2991 2990 2989 2988 2986 2986 2984 2981 2980 2978 2978 2978 2975 2973